Location: Unspecified
(0.0000°N, 0.0000°E)
Time: 02:49:49
(UTC+00:00)

Daily predictions for brighter satellites

Satellite Brightness Start Highest point End
(mag) Time Altitude Azimuth Time Altitude Azimuth Time Altitude Azimuth
Cosmos 2369 Rocket 4.4 03:10:41 16° S 03:10:41 16° S 03:11:48 10° S
ARIANE 5 R/B 4.3 03:11:27 64° ENE 03:11:27 64° ENE 03:34:12 10° E
Ariane H10-3 4.3 03:11:58 65° N 03:12:22 65° NNE 09:41:32 10° E
Ariane H10+ 3.8 03:18:09 47° WSW 03:22:41 67° SSW 03:29:01 10° ESE
Ariane H10 4.3 02:48:38 10° W 03:32:08 63° S 03:37:15 10° ESE
Ariane H10+ 4.3 02:54:16 10° W 03:35:47 61° S 03:40:55 10° ESE
Centaur D-1AR AC-41 4.0 03:37:49 38° E 03:37:49 38° E 03:40:05 10° ENE
CZ-4C R/B 3.9 03:33:10 10° S 03:37:11 25° ESE 03:41:11 10° ENE
ATLAS 2AS CENTAUR R/B 4.0 03:34:23 23° NNE 03:37:34 33° ENE 03:43:22 10° SE
CZ-4B R/B 3.9 03:35:21 30° NE 03:37:41 50° ESE 03:42:51 10° S
Cosmos 1818 4.1 03:41:39 51° S 03:41:39 51° S 03:45:40 10° SSE
Cosmos 1656 Rocket 3.9 03:41:28 60° ENE 03:41:29 60° ENE 03:46:53 10° SSE
Cosmos 2346 Rocket 4.2 03:43:32 10° S 03:49:35 87° W 03:50:13 73° N
Meteor 1-27 Rocket 3.6 03:50:17 75° SSW 03:50:17 75° SSW 03:55:20 10° S
PAYLOAD B 4.1 03:50:42 73° NNE 03:51:16 89° ESE 03:56:52 10° SSW
Ariane H10-3 3.4 03:53:38 51° NW 03:55:13 60° N 03:59:06 10° ENE
Cosmos 1464 Rocket 3.9 03:55:59 66° NW 03:56:40 72° W 04:03:00 10° S
BLOCK DM-SL R/B 2.9 04:04:04 33° E 04:04:04 33° E 04:06:56 10° E
Intelsat 5-1 Rocket 2.4 04:04:57 51° S 04:04:57 51° S 04:07:28 10° SE
Cosmos 1943 Rocket 4.0 04:10:24 16° SW 04:10:24 16° SW 04:12:13 10° SSW
Meteor 1-20 Rocket 4.2 04:04:04 10° SSW 04:09:49 64° W 04:11:25 45° NNW
ATLAS 5 CENTAUR R/B 4.1 00:19:31 10° WNW 04:12:33 79° NNE 04:20:22 10° ESE
ARIANE DEB (SPELDA) 2.8 04:13:37 44° NE 04:13:37 44° NE 04:15:30 10° ENE
SJ-6F 4.5 04:14:25 23° NNE 04:16:57 81° ESE 04:21:08 10° S
Gbstr 26 Del rocket 4.3 04:16:31 24° NNE 04:17:36 28° NE 04:20:50 10° ESE
Cosmos 1782 Rocket 3.6 04:21:27 10° SSW 04:25:41 53° W 04:26:10 50° WNW
Okean 2 Rocket 3.1 04:22:03 10° S 04:26:31 83° E 04:31:00 10° N
IRS-1C Rocket 4.2 04:25:14 19° N 04:28:52 51° WNW 04:33:58 10° SSW
Ariane H10 3.7 04:28:43 32° WNW 04:31:41 58° N 04:59:03 10° E
H-2A R/B 3.8 04:30:30 22° NNW 04:32:12 24° N 04:44:21 10° NE
BLOCK DM-SL R/B 3.3 04:33:54 28° W 04:36:32 83° N 04:43:27 10° E
GEOS 3 Rocket 3.7 04:31:46 10° NNE 04:36:54 52° WNW 04:41:57 10° SW
Cosmos 990 Rocket 4.2 04:33:49 11° N 04:38:53 75° ENE 04:44:07 10° SSE
CZ-2C R/B 4.4 04:35:58 10° NE 04:39:57 28° ESE 04:43:53 10° SSE
Cosmos 858 Rocket 4.4 04:36:07 17° NNW 04:40:07 78° WSW 04:45:23 10° S
Cosmos 2150 Rocket 4.1 04:39:22 10° N 04:44:32 75° ENE 04:49:41 10° SSE
SWIFT 2.3 04:44:46 29° WNW 04:46:53 78° SSW 04:51:09 10° ESE
GPS 2-14 Rocket1 3.7 04:48:45 24° NW 04:49:24 26° NNW 04:52:37 10° NE
Cosmos 1674 Rocket 4.3 04:47:58 24° NW 04:49:45 33° W 04:53:46 10° SSW
ARIANE 3 DEB 3.3 04:49:11 22° WSW 04:51:05 55° S 04:57:02 10° ESE
ARIANE 5 R/B 3.1 04:40:13 18° W 04:51:35 68° N 04:55:02 10° E
Cosmos 1437 Rocket 3.7 04:49:02 10° S 04:53:02 53° E 04:56:57 10° NNE
Okean-O 2.5 04:49:30 10° N 04:53:56 80° W 04:58:21 10° SSW
Cosmos 1602 4.3 04:51:00 10° SSW 04:54:30 33° W 04:57:39 12° NNW
Cosmos 405 4.2 04:53:36 10° SW 04:56:23 21° W 04:56:35 21° W
Meteor 2-20 4.4 04:50:41 10° S 04:56:50 87° W 05:02:57 10° N
Cosmos 1378 Rocket 3.6 04:53:27 10° NNW 04:57:42 54° W 05:01:56 10° S
Nadezhda 4 Rocket 4.3 04:54:19 10° S 05:00:34 73° E 05:06:42 10° N
ARIANE 5 DEB (SYLDA) 1.0 05:00:25 39° NW 05:00:49 54° N 05:02:50 10° E
Ariane H10-3 3.5 04:39:19 11° W 05:01:06 64° N 05:05:03 10° ENE
Ariane H10+ 4.1 04:58:02 17° WNW 05:02:02 71° N 05:18:12 10° E
ARIANE 5 DEB (SYLDA) 2.7 05:01:52 20° WNW 05:03:47 68° N 05:09:43 10° E
Ariane H10 3.2 05:03:04 16° NW 05:04:57 29° N 05:07:54 10° ENE
Cosmos 1634 Rocket 4.0 04:58:53 10° N 05:05:10 71° W 05:11:27 10° S
Timation 2 Rocket 4.4 05:01:23 10° SW 05:07:38 45° WNW 05:14:06 10° N
NOAA 6 4.3 05:05:21 10° N 05:10:14 45° WNW 05:15:09 10° SSW
CZ-2C R/B 4.1 05:08:09 10° SSE 05:12:34 66° ENE 05:16:56 10° N
Meteor 1-11 Rocket 4.0 05:06:54 10° SSW 05:12:40 51° W 05:18:25 10° N
PAYLOAD A 4.1 05:10:14 10° N 05:15:28 59° WNW 05:20:34 10° SSW
GPS 2-05 Rocket1 4.0 05:13:51 10° W 05:16:33 23° NW 05:19:18 10° NNE
IDEFIX/ARIANE 42P 2.6 05:13:50 10° N 05:18:56 57° WNW 05:24:05 10° SSW
Cosmos 1812 4.3 05:17:23 10° NW 05:19:50 16° W 05:22:18 10° SW
CZ-4C R/B 3.3 05:22:21 10° WSW 05:25:19 16° WNW 05:28:19 10° NNW
Cosmos 1536 3.4 05:23:08 10° SSW 05:26:55 38° W 05:30:42 10° NNW
Cosmos 773 Rocket 4.2 05:23:12 10° SSW 05:28:07 47° WNW 05:33:01 10° N
ATLAS 2AS CENTAUR R/B 3.7 05:22:38 10° WNW 05:28:07 25° WSW 05:33:17 10° SSW
ARIANE 5 DEB (SYLDA) 4.5 05:31:05 10° W 05:48:44 90° S 05:52:50 10° E
ARIANE 44P R/B 4.4 06:04:00 10° W 06:32:37 71° NNW 06:36:48 10° ENE
